Terminal Aerodrome Forecast
Issued by NWS

Home | Current Version | Previous Version | Text Only | Print | Product List | Glossary Off
Versions: 1 2 3 4 5 6 7 8 9 10 11 12 13 14 15 16 17 18 19 20 21 22 23 24 25

039
FTUS43 KLOT 240310 AAA
TAFDPA
TAF AMD
KDPA 240310Z 2403/2424 05008KT P6SM BKN013
     FM240700 07006KT 4SM BR FEW008 OVC010
     FM241600 08009KT P6SM BKN017 BKN040
     FM242000 09009KT P6SM BKN035 BKN050=

USA.gov is the U.S. government's official web portal to all federal, state and local government web resources and services.